User: anonymous   Login
Location: Brno
(49.2000°N, 16.6330°E)
Time: 10:42:26
(UTC+02:00)
Language:

Cosmos 2227 - Orbit

View from above orbital plane
View from above orbital plane
View from above satellite
View from above satellite

Ground track
Ground track

The orbit data is extracted from the following two-line orbital elements,

1 22284U 92093A   16270.53457132 -.00000050  00000-0 -13226-5 0  9993
2 22284  70.9786  68.1771 0019711 218.7569 141.2140 14.13276692225399
Epoch (UTC): 26 September 2016 12:49:46
Eccentricity: 0.0019711
inclination: 70.9786°
perigee height: 834 km
apogee height: 862 km
right ascension of ascending node: 68.1771°
argument of perigee: 218.7569°
revolutions per day: 14.13276692
mean anomaly at epoch: 141.2140°
orbit number at epoch: 22539

The dashed part of the orbit path shows where the satellite is in the earth's shadow,  

DLR